Kimball, NE

8:55 AM MST on January 16, 2018 (GMT -0700)
Kimball Municipal-Arraj

Weather History for KIBM - October, 2012

Change the Weather History Date:

Friday, October 5, 2012

  Actual Average (KSNY) Record (KSNY)
Temperature  
Mean Temperature 32 °F -  
Max Temperature 34 °F 68 °F 88 °F (1963)
Min Temperature 30 °F 37 °F 15 °F (1952)
Degree Days  
Heating Degree Days 32    
Moisture  
Dew Point 28 °F    
Average Humidity 85    
Maximum Humidity 96    
Minimum Humidity 64    
Precipitation  
Precipitation 0.03 in - - ()
Sea Level Pressure  
Sea Level Pressure 30.26 in    
Wind  
Wind Speed 9 mph (ESE)    
Max Wind Speed 16 mph    
Max Gust Speed 18 mph    
Visibility 8 miles    
Events Snow    
Averages and records for this station are not official NWS values.
T = Trace of Precipitation, MM = Missing Value Source: NWS Daily Summary

Daily Weather History Graph

Daily Weather History Graph

Search for Another Location

Airport or City:

Trip Planner

Search our weather history database for the weather conditions in past years. The results will help you decide how hot, cold, wet, or windy it might be!

Date:

Astronomy

Oct. 05, 2012 Rise Set
Actual Time 7:56 AM CDT 7:29 PM CDT
Civil Twilight 7:28 AM CDT 7:56 PM CDT
Nautical Twilight 6:56 AM CDT 8:28 PM CDT
Astronomical Twilight 6:24 AM CDT 9:00 PM CDT
Moon 10:51 PM CDT (10/5) 1:08 PM CDT (10/5)
Length of Visible Light 12h 27m
Length of Day
11h 32m
Waning Gibbous, 74% of the Moon is Illuminated
Oct 5
Waning Gibbous
Oct 8
Last Quarter
Oct 15
New
Oct 21
First Quarter
Oct 29
Full

Hourly Weather History & Observations

Time (CDT) Temp. Windchill Dew Point Humidity Pressure Visibility Wind Dir Wind Speed Gust Speed Precip Events Conditions
12:15 AM 32.0 °F 24.2 °F 21.2 °F 64% 30.25 in 10.0 mi ESE 9.2 mph - N/A   Clear
12:35 AM 32.5 °F 24.8 °F 21.7 °F 64% 30.25 in 10.0 mi ESE 9.2 mph - N/A   Clear
12:55 AM 32.4 °F 24.6 °F 21.7 °F 65% 30.25 in 10.0 mi ESE 9.2 mph - N/A   Clear
1:15 AM 32.0 °F 24.2 °F 21.9 °F 66% 30.25 in 10.0 mi ESE 9.2 mph - N/A   Clear
1:35 AM 32.0 °F 23.6 °F 22.1 °F 67% 30.24 in 10.0 mi ESE 10.4 mph - N/A   Clear
1:55 AM 32.4 °F 24.6 °F 22.5 °F 67% 30.25 in 10.0 mi ESE 9.2 mph - N/A   Clear
2:15 AM 32.9 °F 24.7 °F 23.0 °F 67% 30.24 in 10.0 mi ESE 10.4 mph - N/A   Clear
2:35 AM 32.9 °F 24.7 °F 23.0 °F 67% 30.23 in 10.0 mi ESE 10.4 mph - N/A   Mostly Cloudy
2:55 AM 32.9 °F 24.7 °F 23.0 °F 67% 30.23 in 10.0 mi ESE 10.4 mph - N/A   Overcast
3:15 AM 33.3 °F 27.9 °F 23.2 °F 67% 30.27 in 10.0 mi SE 5.8 mph - N/A   Mostly Cloudy
3:35 AM 33.3 °F 26.4 °F 23.0 °F 66% 30.24 in 10.0 mi ESE 8.1 mph - N/A   Overcast
3:55 AM 32.9 °F 24.1 °F 23.0 °F 67% 30.22 in 10.0 mi ESE 11.5 mph 16.1 mph N/A   Overcast
4:15 AM 32.9 °F 24.7 °F 23.0 °F 67% 30.22 in 10.0 mi SE 10.4 mph - N/A   Overcast
4:35 AM 33.4 °F 23.9 °F 23.0 °F 66% 30.21 in 10.0 mi SE 13.8 mph 18.4 mph N/A   Overcast
4:55 AM 33.8 °F 24.8 °F 23.4 °F 66% 30.20 in 10.0 mi SE 12.7 mph - N/A   Overcast
5:15 AM 34.0 °F 26.6 °F 23.5 °F 66% 30.21 in 10.0 mi SE 9.2 mph - N/A   Overcast
5:35 AM 34.3 °F 27.0 °F 23.9 °F 66% 30.20 in 10.0 mi SE 9.2 mph - N/A   Overcast
5:55 AM 34.0 °F 26.0 °F 23.7 °F 66% 30.20 in 10.0 mi ESE 10.4 mph - N/A   Overcast
6:15 AM 34.0 °F 25.5 °F 23.9 °F 67% 30.20 in 10.0 mi SE 11.5 mph - N/A   Overcast
6:35 AM 34.2 °F 27.5 °F 24.1 °F 67% 30.22 in 10.0 mi ESE 8.1 mph - N/A   Overcast
6:55 AM 33.8 °F 25.3 °F 24.4 °F 69% 30.20 in 10.0 mi ESE 11.5 mph - N/A   Overcast
7:15 AM 33.8 °F 23.5 °F 24.6 °F 69% 30.19 in 10.0 mi ESE 16.1 mph - N/A   Overcast
7:35 AM 32.9 °F 23.2 °F 25.7 °F 75% 30.20 in 10.0 mi ESE 13.8 mph - N/A   Overcast
7:55 AM 32.0 °F 22.1 °F 27.0 °F 82% 30.22 in 10.0 mi ESE 13.8 mph - N/A   Overcast
8:15 AM 32.0 °F 22.5 °F 27.5 °F 83% 30.23 in 10.0 mi ESE 12.7 mph - N/A   Overcast
8:35 AM 31.8 °F 24.6 °F 28.0 °F 86% 30.23 in 10.0 mi East 8.1 mph - N/A   Overcast
8:55 AM 31.5 °F 23.5 °F 28.0 °F 87% 30.24 in 10.0 mi ESE 9.2 mph - N/A   Overcast
9:15 AM 31.5 °F 22.3 °F 28.6 °F 89% 30.25 in 10.0 mi ESE 11.5 mph - N/A   Overcast
9:35 AM 31.1 °F 22.4 °F 29.3 °F 93% 30.26 in 7.0 mi ESE 10.4 mph - N/A   Overcast
9:55 AM 31.1 °F 22.4 °F 29.7 °F 94% 30.25 in 2.0 mi ESE 10.4 mph - N/A   Overcast
10:15 AM 31.5 °F 21.8 °F 30.0 °F 94% 30.25 in 1.8 mi ESE 12.7 mph - N/A   Overcast
10:35 AM 31.8 °F 24.6 °F 30.6 °F 95% 30.25 in 2.0 mi ESE 8.1 mph - N/A   Overcast
10:55 AM 31.8 °F 23.3 °F 30.6 °F 95% 30.27 in 2.5 mi ESE 10.4 mph - N/A   Overcast
11:15 AM 32.0 °F 24.2 °F 30.6 °F 94% 30.27 in 1.2 mi ESE 9.2 mph - N/A   Overcast
11:35 AM 32.0 °F 24.8 °F 30.9 °F 96% 30.28 in 1.2 mi East 8.1 mph - 0.01 in   Overcast
11:55 AM 32.0 °F 23.6 °F 30.7 °F 95% 30.28 in 1.0 mi East 10.4 mph - 0.01 in   Overcast
12:15 PM 32.0 °F 23.6 °F 30.7 °F 95% 30.28 in 1.5 mi East 10.4 mph - 0.01 in   Overcast
12:35 PM 32.0 °F 23.0 °F 30.6 °F 94% 30.28 in 1.8 mi ESE 11.5 mph - 0.01 in   Overcast
12:55 PM 32.0 °F 23.0 °F 30.7 °F 95% 30.28 in 2.5 mi East 11.5 mph - 0.02 in   Overcast
1:35 PM 32.2 °F 25.0 °F 30.9 °F 95% 30.28 in 3.0 mi East 8.1 mph - N/A   Overcast
1:55 PM 32.4 °F 25.3 °F 30.9 °F 94% 30.28 in 4.0 mi East 8.1 mph - N/A   Overcast
2:15 PM 32.5 °F 26.2 °F 31.1 °F 94% 30.28 in 5.0 mi East 6.9 mph - N/A   Overcast
2:35 PM 32.5 °F 25.5 °F 31.1 °F 94% 30.27 in 4.0 mi East 8.1 mph - N/A   Overcast
2:55 PM 32.5 °F 27.1 °F 31.1 °F 94% 30.27 in 3.0 mi East 5.8 mph - N/A Snow Light Snow
3:15 PM 32.7 °F 25.7 °F 31.3 °F 94% 30.27 in 3.0 mi East 8.1 mph - N/A Snow Light Snow
3:35 PM 32.9 °F 25.9 °F 31.5 °F 94% 30.26 in 5.0 mi East 8.1 mph - N/A   Overcast
3:55 PM 32.9 °F 27.5 °F 31.1 °F 93% 30.27 in 7.0 mi ESE 5.8 mph - N/A   Overcast
4:15 PM 32.9 °F 26.7 °F 31.3 °F 94% 30.27 in 4.0 mi ESE 6.9 mph - N/A Snow Light Snow
4:35 PM 33.3 °F 27.9 °F 31.5 °F 93% 30.26 in 10.0 mi East 5.8 mph - N/A   Overcast
4:55 PM 32.9 °F 28.5 °F 31.3 °F 94% 30.27 in 7.0 mi SE 4.6 mph - N/A   Overcast
5:15 PM 32.5 °F 27.1 °F 31.1 °F 94% 30.27 in 3.0 mi SE 5.8 mph - N/A   Overcast
5:35 PM 32.2 °F 26.7 °F 31.1 °F 96% 30.28 in 2.5 mi ESE 5.8 mph - N/A Snow Light Snow
5:55 PM 32.4 °F 29.1 °F 31.1 °F 95% 30.28 in 3.0 mi ESE 3.5 mph - N/A Snow Light Snow
6:15 PM 32.9 °F 29.8 °F 31.1 °F 93% 30.28 in 10.0 mi SSE 3.5 mph - N/A   Overcast
6:35 PM 32.9 °F - 31.1 °F 93% 30.28 in 10.0 mi Calm Calm - N/A   Overcast
6:55 PM 33.1 °F - 31.1 °F 92% 30.28 in 10.0 mi Calm Calm - N/A   Overcast
7:15 PM 33.1 °F 28.7 °F 31.1 °F 92% 30.28 in 10.0 mi ESE 4.6 mph - N/A   Overcast
7:35 PM 32.9 °F 27.5 °F 31.3 °F 94% 30.28 in 10.0 mi ESE 5.8 mph - N/A   Overcast
7:55 PM 32.5 °F 26.2 °F 31.5 °F 96% 30.28 in 10.0 mi SE 6.9 mph - N/A   Overcast
8:15 PM 32.4 °F 27.9 °F 31.1 °F 95% 30.28 in 10.0 mi ESE 4.6 mph - N/A   Overcast
8:35 PM 32.4 °F 26.0 °F 31.3 °F 96% 30.30 in 10.0 mi SE 6.9 mph - N/A   Overcast
8:55 PM 32.4 °F 26.9 °F 31.1 °F 95% 30.30 in 10.0 mi ESE 5.8 mph - N/A   Overcast
9:15 PM 32.2 °F 26.7 °F 31.1 °F 96% 30.31 in 10.0 mi ESE 5.8 mph - N/A   Overcast
9:35 PM 32.2 °F 26.7 °F 30.9 °F 95% 30.30 in 10.0 mi SE 5.8 mph - N/A   Overcast
9:55 PM 32.2 °F 25.8 °F 30.9 °F 95% 30.30 in 10.0 mi SSE 6.9 mph - N/A   Overcast
10:35 PM 32.0 °F 25.6 °F 30.4 °F 94% 30.30 in 10.0 mi SSE 6.9 mph - N/A   Overcast
10:55 PM 32.0 °F 25.6 °F 30.6 °F 94% 30.30 in 10.0 mi SSE 6.9 mph - N/A   Overcast
11:15 PM 31.8 °F 27.3 °F 30.2 °F 94% 30.28 in 10.0 mi South 4.6 mph - N/A   Overcast
11:55 PM 30.7 °F 24.1 °F 29.3 °F 94% 30.28 in 5.0 mi South 6.9 mph - N/A   Overcast